Regional Weather Roundup
Issued by NWS Upton, NY

Current Version | Previous Version | Text Only | Print | Product List | Glossary On
Versions: 1 2 3 4 5 6 7 8 9 10 11 12 13 14 15 16 17 18 19 20 21 22 23 24 25 26 27 28 29 30 31 32 33 34 35 36 37 38 39 40 41 42 43 44 45 46 47 48 49 50
000 ASUS41 KOKX 280604 RWROKX REGIONAL WEATHER ROUNDUP NATIONAL WEATHER SERVICE NEW YORK NY 200 AM EDT FRI AUG 28 2015 NOTE: "FAIR" INDICATES FEW OR NO CLOUDS BELOW 12,000 FEET WITH NO SIGNIFICANT WEATHER AND/OR OBSTRUCTIONS TO VISIBILITY. NYZ071-072-176-178-NJZ106-104-280700- NEW YORK CITY METRO AREA CITY SKY/WX TMP DP RH WIND PRES REMARKS CENTRAL PARK FAIR 68 53 58 NW5 30.16S LAGUARDIA APRT FAIR 70 54 56 N6 30.12S KENNEDY INTL MOCLDY 70 53 54 N5 30.13F NEWARK/LIBERTY FAIR 67 54 63 W6 30.13S BRNX BOT. GARD N/A 63 54 72 NE3 30.13F TETERBORO FAIR 63 52 67 NW3 30.13S $$ NYZ177-179-078>081-280700- LONG ISLAND NEW YORK CITY SKY/WX TMP DP RH WIND PRES REMARKS FARMINGDALE FAIR 67 56 67 NW5 30.12F ISLIP FAIR 63 55 75 N3 30.10F SHIRLEY FAIR 62 56 80 CALM 30.12S WESTHAMPTON FAIR 56 52 86 N6 30.12F MONTAUK POINT N/A 69 58 67 N7 30.11S $$ NYZ052-065-067-280700- HUDSON VALLEY CITY SKY/WX TMP DP RH WIND PRES REMARKS WHITE PLAINS FAIR 61 54 77 N7 30.12F NEWBURGH NOT AVBL MONTGOMERY FAIR 54 53 97 SW3 30.15S POUGHKEEPSIE FAIR 57 54 89 CALM 30.13S ALBANY FAIR 60 53 77 W3 30.13F $$ NJZ001-105-106-008-010-013-015-019>022-104-280700- NEW JERSEY CITY SKY/WX TMP DP RH WIND PRES REMARKS NEWARK/LIBERTY FAIR 67 54 63 W6 30.13S TETERBORO FAIR 63 52 67 NW3 30.13S CALDWELL FAIR 59 53 80 CALM 30.15S MORRISTOWN FAIR 52 46 82 CALM 30.15S SOMERVILLE FAIR 54 52 93 NW3 30.13F SUSSEX FAIR 53 51 93 SW3 30.16S ANDOVER N/A 53 52 96 CALM 30.17S TRENTON FAIR 61 56 83 NW5 30.14S MILLVILLE FAIR 57 54 89 CALM 30.14F ATLANTIC CITY FAIR 61 56 83 NW3 30.14S WRIGHTSTOWN FAIR 59 55 86 CALM 30.12S TOMS RIVER FAIR 54 48 82 CALM 30.14F BELMAR FAIR 59 50 72 NW6 30.14S $$ PAZ047>061-062-071-280700- EASTERN PENNSYLVANIA CITY SKY/WX TMP DP RH WIND PRES REMARKS PHILADELPHIA FAIR 67 54 63 N6 30.15F ALLENTOWN FAIR 58 53 84 CALM 30.16F SCRANTON FAIR 57 52 83 E6 30.18R $$ CTZ002-004>006-009-010-012-RIZ004-006-007-MAZ004-011-015-280700- SOUTHERN NEW ENGLAND IN CT CITY SKY/WX TMP DP RH WIND PRES REMARKS BRADLEY INTL FAIR 58 55 90 CALM 30.11S HARTFORD FAIR 62 57 83 CALM 30.12S DANBURY FAIR 57 52 83 CALM 30.15S WTRBRY/OXFORD FAIR 57 48 72 CALM 30.15S BRIDGEPORT FAIR 65 55 70 N7 30.11F MERIDEN FAIR 57 53 86 CALM 30.12F NEW HAVEN FAIR 62 54 74 N3 30.12F CHESTER NOT AVBL GROTON FAIR 63 57 81 N6 30.09S WILLIMANTIC FAIR 58 55 90 CALM 30.11S IN RI CITY SKY/WX TMP DP RH WIND PRES REMARKS PROVIDENCE FAIR 64 56 75 W3 30.09 BLOCK ISLAND FAIR 64 59 82 NW6 30.09F WESTERLY FAIR 60 56 86 CALM 30.10 IN MA CITY SKY/WX TMP DP RH WIND PRES REMARKS BOSTON FAIR 66 54 65 W8 30.08S WORCESTER FAIR 59 54 83 W7 30.12S WESTFIELD FAIR 56 54 93 CALM 30.12S PROVINCETOWN FAIR 68 55 64 NW10 30.07S NANTUCKET FAIR 70 56 61 NW9 30.06F $$ ANZ330-335-338-340-345-350-353-355-280700- COASTAL MARINE OBSERVATIONS STATION/POSITION TIME SKY/WX TEMP WIND PRES VSBY WAVE AIR SEA DIR/SP/G HT/PER (UTC) (F) (DEG/KT/KT) (MB) (MI) (FT/S) NY HARB ENTRANCE 0550 72 76 330/ 12/ 14 1019.8 2/10 4S FIRE IS NOT AVBL 20S FIRE ISLAND 0450 72 75 340/ 12/ 14 1019.7 3/10 GREAT SOUTH BAY 0515 64 78 CALM / 2 N/A 23SW MTP 0550 71 72 340/ 10/ 10 1018.9 3/11 HUDSON CANYON NOT AVBL KINGS POINT 0500 70 73 20/ 3/ 5 1019.5 EXECUTION ROCKS 0500 69 350/ 6/ 10 N/A CENTRAL LI SOUND NOT AVBL EASTERN LI SOUND 0500 68 70 330/ 12/ 14 N/A ROBBINS REEF 0500 69 320/ 6/ 7 1019.4 $$ >>>>>>>>>>>>>>>>>>>>>>>>>>>> KEY <<<<<<<<<<<<<<<<<<<<<<<<<<< > < > SKY/WX - SKY CONDITION/PRESENT WEATHER < > TMP - TEMPERATURE IN FAHRENHEIT < > DP - DEWPOINT IN FAHRENHEIT < > RH - RELATIVE HUMIDITY IN PERCENT < > WIND - DIRECTION AND SPEED IN MPH < > PRES - MEAN SEA LEVEL PRESSURE IN INCHES OF HG < > WCI - WIND CHILL INDEX < > VSB - VISIBILITY IN MILES < > HX - HEAT INDEX < > TC - TEMPERATURE IN CELSIUS < > VRB - VARIABLE WIND DIRECTION < > < >>>>>>>>>>>>>>>>>>>>>>>>>>>> KEY <<<<<<<<<<<<<<<<<<<<<<<<<<<

USA.gov is the U.S. government's official web portal to all federal, state and local government web resources and services.